Regional Weather Roundup
Issued by NWS

Home | Current Version | Previous Version | Text Only | Print | Product List | Glossary Off
Versions: 1 2 3 4 5 6 7 8 9 10 11 12 13 14 15 16 17 18 19 20 21 22 23 24 25 26 27 28 29 30 31 32 33 34 35 36 37 38 39 40 41 42 43 44 45 46 47 48 49 50

743
ASUS45 KCYS 230310
RWRWY

WYOMING REGIONAL WEATHER ROUNDUP
NATIONAL WEATHER SERVICE CHEYENNE WY
900 PM MDT SAT APR 22 2017

NOTE:  "FAIR" INDICATES FEW OR NO CLOUDS BELOW 12,000 FEET
WITH NO SIGNIFICANT WEATHER AND/OR OBSTRUCTIONS TO VISIBILITY.

WYZ001-230400-
YELLOWSTONE NATIONAL PARK

CITY           SKY/WX    TMP DP  RH WIND       PRES   REMARKS
LK YELLOWSTONE   N/A     36  25  64 VRB5      30.11S WCI  32
W YELLOWSTONE  NOT AVBL

$$
WYZ002>013-054>058-071-098>099-230400-
NORTHERN WYOMING

CITY           SKY/WX    TMP DP  RH WIND       PRES   REMARKS
JACKSON        FAIR      45  28  53 S3        30.07S
CODY           FAIR      48  37  65 CALM      30.00R
GREYBULL       FAIR      50  36  58 E8        29.96F
WORLAND        FAIR      47  41  80 E9        29.95F
SHERIDAN       FAIR      47  40  76 W6        29.96S
BUFFALO        FAIR      46  36  68 W3        29.99F
GILLETTE         N/A     48  36  63 S13       30.00F
HULETT         FAIR      50  34  53 S6        30.05S
NEWCASTLE      FAIR      48  32  53 SE14      30.08S

$$
WYZ014>020-022>026-101>103-230400-
CENTRAL WYOMING

CITY           SKY/WX    TMP DP  RH WIND       PRES   REMARKS
BIG PINEY      FAIR      44  21  40 S5        30.11S
PINEDALE       FAIR      43  19  39 CALM      30.13S
DUBOIS         FAIR      41  19  42 NW12      30.06S
LANDER         FAIR      51  26  37 SW8       29.98S
RIVERTON       FAIR      52  27  38 SW6       30.00S
CASPER         FAIR      38  31  76 S3        30.04F
DOUGLAS        FAIR      48  31  51 SE12      30.08F

$$
WYZ021-027>030-104>119-230400-
SOUTHERN WYOMING

CITY           SKY/WX    TMP DP  RH WIND       PRES   REMARKS
EVANSTON       FAIR      45  28  51 W13       30.10R
KEMMERER         N/A     46  21  36 CALM      30.11R
FORT BRIDGER   FAIR      51  22  33 CALM      30.12S
ROCK SPRINGS   FAIR      47  22  37 S7        30.09S
DIXON            N/A     41  30  64 NE3       30.15S
RAWLINS        FAIR      45  17  32 SW9       30.11S
SARATOGA       FAIR      43  19  39 SW13      30.14R
LARAMIE        FAIR      38  28  67 SE20      30.15F WCI  28
CHEYENNE       FAIR      43  30  60 S10       30.18S
TORRINGTON     FAIR      47  31  53 S13       30.12S
PINE BLUFFS    FAIR      43  30  61 S10       30.19S

$$




USA.gov is the U.S. government's official web portal to all federal, state and local government web resources and services.